Location: *
(46.0770°N, 1.6444°E)
Time: 14:49:30
(UTC+00:00)

ATLAS 2AS CENTAUR R/B - Pass Details

Date: 16 September 2019
Orbit: 919 x 1292 km, 63.6° (Epoch: 21 September)

Event Time Altitude Azimuth Distance (km) Brightness Sun altitude
Rises 18:19:02 0° 320° (NW) 4,242 6.7 -3.5°
Reaches altitude 10° 18:22:05 10° 326° (NW) 3,241 5.9 -4.0°
Maximum altitude 18:29:36 48° 39° (NE) 1,527 3.4 -5.3°
Drops below altitude 10° 18:36:31 10° 113° (ESE) 2,991 4.4 -6.5°
Enters shadow 18:37:24 - 115° (ESE) 3,282 4.6 -6.6°
